TimeEST,TemperatureF,Dew PointF,Humidity,Sea Level PressureIn,VisibilityMPH,Wind Direction,Wind SpeedMPH,Gust SpeedMPH,PrecipitationIn,Events,Conditions,WindDirDegrees,DateUTC
12:52 AM,18.0,5.0,57,29.82,10.0,North,8.1,-,N/A,,Overcast,360,2013-02-17 05:52:00
1:52 AM,16.0,5.0,62,29.78,10.0,NNW,12.7,-,N/A,,Overcast,340,2013-02-17 06:52:00
2:52 AM,16.0,5.0,62,29.77,10.0,North,6.9,-,N/A,,Overcast,360,2013-02-17 07:52:00
3:52 AM,16.0,5.0,62,29.75,10.0,NW,4.6,-,N/A,,Overcast,320,2013-02-17 08:52:00
4:52 AM,15.1,5.0,64,29.72,10.0,NNW,4.6,-,N/A,,Overcast,340,2013-02-17 09:52:00
5:52 AM,14.0,5.0,67,29.69,10.0,NW,5.8,-,N/A,,Overcast,320,2013-02-17 10:52:00
6:52 AM,15.1,5.0,64,29.67,10.0,NNW,6.9,-,N/A,,Overcast,330,2013-02-17 11:52:00
7:52 AM,14.0,3.9,64,29.63,10.0,NNW,9.2,-,N/A,,Overcast,340,2013-02-17 12:52:00
8:52 AM,15.1,3.0,59,29.59,10.0,NNW,12.7,20.7,N/A,,Overcast,330,2013-02-17 13:52:00
9:52 AM,14.0,1.0,56,29.57,10.0,NNW,12.7,25.3,N/A,,Overcast,330,2013-02-17 14:52:00
10:52 AM,14.0,3.0,62,29.55,10.0,NW,11.5,23.0,N/A,,Overcast,320,2013-02-17 15:52:00
11:52 AM,12.9,-0.0,56,29.53,10.0,NW,10.4,16.1,N/A,,Overcast,320,2013-02-17 16:52:00
12:52 PM,12.9,-0.0,56,29.51,10.0,NW,15.0,23.0,N/A,,Overcast,320,2013-02-17 17:52:00
1:52 PM,12.9,-0.0,56,29.48,10.0,NNW,17.3,25.3,N/A,,Overcast,330,2013-02-17 18:52:00
2:52 PM,14.0,-0.0,54,29.47,10.0,NNW,9.2,17.3,N/A,,Overcast,330,2013-02-17 19:52:00
3:52 PM,12.9,-0.9,54,29.48,10.0,NW,10.4,19.6,N/A,,Overcast,310,2013-02-17 20:52:00
4:52 PM,10.9,-0.9,59,29.51,10.0,WNW,9.2,21.9,N/A,,Overcast,300,2013-02-17 21:52:00
6:52 PM,10.9,1.0,64,29.54,10.0,WNW,11.5,23.0,0.00,,Overcast,300,2013-02-17 23:52:00
7:52 PM,10.9,1.9,67,29.56,2.0,WNW,13.8,29.9,0.00,Snow,Light Snow,300,2013-02-18 00:52:00
8:14 PM,10.4,3.2,73,29.50,1.8,WNW,12.7,26.5,0.00,Snow,Light Snow,290,2013-02-18 01:14:00
8:52 PM,10.0,1.9,70,29.59,1.5,WNW,10.4,28.8,0.00,Snow,Light Snow,290,2013-02-18 01:52:00
9:27 PM,10.4,1.4,67,29.52,2.5,WNW,9.2,23.0,0.00,Snow,Light Snow,290,2013-02-18 02:27:00
9:52 PM,10.0,1.9,70,29.60,2.5,WNW,12.7,29.9,0.00,Snow,Light Snow,300,2013-02-18 02:52:00
10:10 PM,10.4,1.4,67,29.53,3.0,WNW,12.7,25.3,0.00,Snow,Light Snow,290,2013-02-18 03:10:00
10:52 PM,10.0,-0.0,64,29.62,4.0,WNW,9.2,28.8,0.00,Snow,Light Snow,300,2013-02-18 03:52:00